Wind_Speed
53 53 52 51 50 48 48 47 46 45 44 43 42 43 43 42 41 41 39 38 36 34 32 31 31 32 34 35 36 39 39 39 39 38 41 47 51 56 55 53 51 50 50 50 49 47 46 46 44 43 41 39 37 36 33 32 30 28 26 25 24 23 22 21 21 19 17 16 14 13 12 11 9 9 8 8 8 8 9 10 10 10 9 8 8 9 10 8
53 54 52 52 50 49 48 48 47 46 45 44 43 42 42 41 40 40 38 35 33 32 31 27 26 28 31 33 34 37 39 40 40 38 39 43 50 55 54 53 52 51 51 51 49 48 47 46 45 44 41 39 37 36 34 32 30 28 27 26 25 24 23 22 20 19 17 16 14 13 12 10 9 8 8 8 8 9 9 10 10 10 9 8 8 8 9 9
54 54 52 51 51 50 49 48 47 47 46 45 44 42 41 41 40 38 36 34 30 29 29 25 23 25 29 31 33 35 37 39 39 37 37 40 48 54 54 53 52 52 52 51 49 48 48 48 46 45 42 40 38 36 34 32 30 28 28 27 26 25 23 22 21 19 18 16 15 13 12 10 9 8 8 8 9 9 9 10 9 9 9 8 8 7 8 8
53 53 52 51 51 50 48 47 47 47 47 46 44 42 41 40 39 36 35 32 29 27 26 23 21 22 27 29 30 32 34 36 37 37 36 39 47 54 53 51 52 52 52 50 49 48 49 48 47 45 43 41 39 37 34 33 31 29 29 28 26 25 24 23 21 20 19 17 15 14 12 10 9 8 8 8 8 9 10 10 10 10 9 9 8 8 8 7
51 52 52 50 50 49 48 48 47 46 47 47 45 43 41 39 38 36 34 31 29 28 26 22 20 23 27 28 27 28 31 33 35 36 37 40 48 54 52 51 52 52 51 50 49 48 48 48 47 45 44 42 40 37 35 33 31 30 29 27 26 24 24 22 21 20 19 18 16 14 13 11 10 8 8 8 8 9 10 11 11 11 10 9 9 9 8 8
50 51 51 49 48 48 48 48 46 46 46 47 46 44 42 40 38 35 33 31 29 28 28 26 26 30 31 29 26 26 30 33 34 36 38 43 50 54 52 52 53 52 51 50 49 49 49 48 47 45 43 41 40 37 35 33 32 30 29 27 26 25 24 22 21 20 20 18 17 15 14 12 10 9 9 9 9 9 10 10 11 11 10 10 10 9 9 8
50 51 50 48 47 47 47 47 46 45 44 45 46 45 43 41 39 36 34 32 30 30 32 32 33 33 32 31 29 30 33 34 34 36 40 46 52 53 53 54 54 53 52 50 49 49 48 47 46 45 43 41 40 38 36 34 32 31 29 28 27 26 24 23 21 20 20 19 17 16 14 12 10 9 9 9 9 9 10 11 11 10 10 10 10 9 9 8
50 50 51 48 46 46 46 46 45 44 43 44 46 46 44 42 40 38 35 33 31 31 33 34 33 31 29 29 31 35 38 37 35 37 43 49 52 54 55 54 54 53 51 50 49 49 49 48 47 45 44 42 40 39 37 35 33 31 30 29 27 26 24 23 22 21 20 19 18 17 14 12 11 10 9 10 10 10 11 11 11 11 11 10 10 10 9 8
51 50 51 48 46 45 45 45 45 44 42 43 45 46 45 43 42 39 37 35 33 32 32 32 31 29 27 28 33 38 41 40 38 39 45 50 52 54 55 54 53 51 50 50 50 50 50 49 48 47 45 43 41 39 38 36 34 32 30 29 28 27 25 24 24 23 21 20 19 17 15 13 12 10 10 11 11 12 12 12 11 11 11 11 11 10 10 9
51 49 50 48 46 45 45 45 44 44 42 42 44 45 45 44 43 40 38 36 34 32 32 31 30 28 27 28 33 38 42 44 41 43 48 50 51 52 53 54 53 52 51 50 50 50 50 49 48 47 46 44 43 41 39 37 35 33 32 30 29 27 26 25 25 23 21 20 19 17 16 14 12 11 11 12 13 13 12 12 12 11 11 11 11 11 10 9
52 49 49 49 46 44 44 44 44 44 43 42 42 44 44 44 44 42 39 37 35 33 33 31 29 27 26 28 32 39 44 45 44 46 50 52 51 51 52 54 54 53 52 51 50 50 50 50 49 48 47 45 44 42 41 39 36 34 33 31 30 28 27 26 24 23 21 20 20 18 17 15 13 12 13 14 13 13 13 13 13 12 12 12 12 12 11 10
52 49 49 49 47 44 44 44 43 43 43 41 41 42 43 44 45 43 41 39 36 35 34 33 30 27 27 27 33 41 45 46 46 49 52 53 51 50 52 54 55 55 54 52 51 51 50 50 49 48 47 46 45 43 42 40 38 35 34 32 31 29 27 26 24 22 21 21 20 19 18 16 15 14 13 14 14 13 14 14 14 13 13 13 13 13 12 12
53 50 49 49 47 45 44 43 43 43 42 42 40 41 42 44 46 45 43 41 38 37 36 34 31 28 27 27 35 44 46 46 48 50 52 52 50 50 51 53 54 54 54 53 52 52 51 50 49 49 48 47 46 45 43 41 39 37 35 33 32 31 28 26 24 23 22 21 21 20 18 17 17 15 13 14 15 15 15 15 14 14 14 14 14 14 13 13
53 51 50 50 48 46 44 43 43 43 42 42 40 40 41 44 47 46 45 43 40 38 37 36 32 29 28 29 38 45 47 47 49 51 50 49 49 48 49 51 52 54 54 54 53 52 51 51 50 49 49 49 47 46 43 41 40 38 36 35 33 31 28 25 24 23 21 21 20 20 18 18 18 15 14 16 16 17 17 16 15 14 15 16 15 15 14 15
52 51 50 50 49 47 45 44 43 42 42 41 40 40 40 43 47 48 47 44 42 40 39 37 33 30 29 32 40 46 48 48 50 51 48 46 47 47 47 48 50 53 53 53 52 51 51 51 50 50 49 49 48 46 44 42 41 39 37 36 33 30 28 26 25 23 21 20 20 20 19 20 19 16 16 17 17 18 18 16 16 16 16 17 16 16 16 16
51 50 50 50 50 47 45 44 43 42 42 41 41 39 39 42 46 48 48 46 43 41 40 39 35 31 30 34 41 46 49 49 50 50 47 44 44 45 46 47 48 51 52 51 51 51 51 51 51 51 50 49 48 46 45 43 42 41 38 35 32 29 27 26 25 23 22 21 21 20 20 21 20 18 18 18 18 18 18 18 17 17 17 16 16 16 17 17
50 50 49 50 50 47 44 43 43 43 42 42 41 40 39 41 46 49 49 47 44 43 42 40 36 33 32 34 40 47 50 50 50 49 46 43 42 44 46 46 46 48 49 50 51 51 52 52 52 52 51 49 48 47 46 46 44 41 38 34 31 29 27 26 25 24 24 23 22 22 21 21 21 19 20 20 19 19 19 19 19 19 18 17 17 18 19 19
50 49 49 50 51 48 45 43 43 43 42 42 41 41 41 42 46 49 49 48 46 45 44 42 39 36 35 36 40 48 51 50 49 48 46 43 41 43 45 45 46 46 48 49 50 51 52 53 53 53 52 51 49 48 47 45 41 37 35 32 29 27 27 27 27 27 26 25 24 23 22 22 23 21 21 22 22 20 20 20 20 20 19 18 19 20 21 21
51 51 50 50 51 49 46 44 44 44 43 42 41 42 42 42 45 48 50 49 47 47 46 43 40 37 36 38 41 46 51 51 49 48 46 43 41 41 44 45 46 46 47 48 49 51 52 53 54 55 54 52 50 47 45 42 39 37 35 33 31 31 31 31 31 30 29 28 26 24 22 23 25 23 22 24 24 22 20 20 21 21 21 20 21 21 22 22
53 52 51 51 51 49 46 45 45 44 43 42 41 41 42 42 44 48 50 50 48 47 46 43 42 40 38 40 41 43 50 52 50 48 46 43 41 40 41 43 45 45 46 47 48 49 50 52 54 53 51 49 47 45 44 43 42 40 38 36 35 34 34 33 33 32 31 29 26 24 23 24 26 26 25 25 24 23 22 22 22 22 22 22 22 23 23 23
54 53 52 51 51 49 46 45 45 44 43 42 41 40 40 39 41 45 49 51 51 49 48 46 45 44 42 43 43 43 47 51 50 48 46 44 42 41 40 41 43 43 44 45 46 47 49 51 51 50 48 47 47 46 46 45 44 42 40 38 37 36 35 34 34 32 31 30 28 27 26 25 27 28 27 26 24 24 24 25 25 24 24 24 23 24 24 25
55 54 53 52 51 49 46 45 45 44 43 41 40 39 39 39 40 43 47 49 50 49 50 50 48 48 46 45 45 45 45 48 50 48 46 44 43 42 40 40 40 40 42 43 44 46 48 50 49 47 47 47 48 48 47 46 45 43 41 40 39 37 36 35 34 33 32 31 30 30 28 26 27 29 28 26 25 26 26 26 26 26 26 25 25 25 26 26
55 54 53 52 52 49 47 45 45 44 42 41 40 40 40 41 42 45 48 50 50 49 49 50 50 50 49 47 47 47 46 46 48 48 47 44 43 43 41 39 39 38 39 40 41 42 44 46 45 45 45 46 47 47 46 46 45 44 42 41 39 38 37 36 35 34 33 33 32 31 30 28 28 29 29 29 28 27 28 27 27 28 27 27 27 27 27 27
55 54 53 53 52 50 47 45 45 44 42 41 41 41 42 43 43 46 49 52 52 52 50 51 51 52 51 49 48 48 46 45 45 46 46 45 43 43 42 39 38 38 38 38 38 39 40 41 41 41 42 43 45 45 45 45 44 44 42 42 41 39 39 38 37 36 36 35 34 33 33 31 29 30 30 31 31 29 29 29 28 28 29 29 29 29 29 29
56 55 54 54 53 52 49 46 45 44 43 42 41 42 43 44 45 46 49 52 53 54 54 53 54 54 53 51 49 48 46 45 45 44 45 46 44 43 42 40 39 37 37 37 37 39 39 39 39 40 42 43 44 44 44 45 44 44 43 42 42 41 41 40 39 38 38 37 36 36 36 34 31 31 31 32 32 31 31 30 29 29 30 30 30 31 31 31
58 57 55 55 54 53 51 48 46 46 45 43 42 42 44 46 47 47 49 52 55 56 56 55 55 57 56 55 52 50 48 47 47 45 45 46 46 44 42 41 40 38 37 38 38 39 39 38 38 40 42 43 44 44 44 45 45 45 44 43 43 42 42 42 41 41 41 40 39 38 39 38 34 32 32 33 33 34 34 32 31 31 31 32 32 32 32 32
58 58 57 56 55 55 53 50 47 46 46 45 44 44 45 47 48 48 49 52 56 57 57 56 56 57 57 56 55 53 52 50 49 48 47 47 47 46 44 42 42 40 38 39 40 40 40 39 39 41 42 43 44 44 43 43 44 44 43 43 44 44 44 44 43 43 43 42 41 40 40 41 37 33 33 34 34 35 36 35 33 33 33 33 32 32 33 33
56 56 58 58 57 55 53 50 48 46 47 46 45 45 47 48 49 49 49 53 56 57 57 57 57 57 58 57 55 54 53 51 50 50 49 48 48 48 46 44 43 41 40 40 40 39 39 38 38 39 41 41 41 41 41 41 42 42 42 43 44 45 45 45 45 45 44 44 43 42 42 43 41 35 33 35 35 36 37 37 36 36 35 33 32 33 33 34
55 54 55 56 56 56 54 52 50 49 48 48 47 47 48 49 50 51 51 54 56 57 57 58 58 58 59 59 57 55 53 52 52 51 50 50 49 49 48 46 44 43 42 42 41 40 39 37 37 38 40 40 40 40 41 41 42 42 43 43 44 45 45 46 46 45 45 45 45 44 43 44 44 38 34 36 36 36 37 38 39 38 36 34 33 33 34 34
56 55 55 54 54 55 54 53 52 51 51 49 49 48 48 50 51 53 54 54 55 56 57 58 58 59 59 60 60 57 55 53 52 52 52 52 51 50 49 48 46 45 44 44 44 43 41 39 38 39 41 41 41 42 42 43 44 44 45 45 45 46 46 46 46 46 46 46 46 45 43 44 45 41 36 36 36 36 36 38 39 39 38 36 34 34 34 34
58 57 57 55 55 55 55 54 53 52 53 52 51 51 51 51 51 55 55 52 53 56 57 58 59 59 58 59 60 59 58 56 53 53 53 53 53 53 52 51 49 48 47 47 46 46 44 43 42 41 42 41 42 42 43 44 45 45 46 46 46 47 47 47 47 46 47 47 46 44 43 43 45 42 38 36 35 36 37 38 40 40 40 38 36 35 35 35
57 57 57 57 57 57 56 55 53 53 54 54 54 53 53 54 56 56 53 51 53 55 55 57 57 58 58 58 59 60 59 58 55 54 53 53 54 54 54 52 51 50 49 49 49 48 46 45 44 44 43 42 42 42 43 43 44 45 46 46 46 47 47 47 46 46 46 45 45 44 43 43 43 41 40 38 35 36 37 38 39 40 41 40 38 36 36 35
57 57 57 58 58 59 58 56 55 55 55 55 55 55 55 57 58 54 51 52 55 52 52 56 57 58 59 59 60 61 60 59 57 55 53 53 55 55 53 51 49 47 47 46 46 46 45 45 45 44 44 44 43 43 43 43 43 43 44 44 45 45 45 45 44 44 44 43 44 43 43 43 42 40 41 40 37 36 36 37 38 40 41 41 40 39 38 37
58 59 58 59 60 61 61 59 57 56 56 57 56 55 57 59 55 51 51 54 54 51 50 55 57 59 60 60 60 60 60 60 59 58 55 54 55 56 54 52 49 47 45 44 43 43 43 43 43 43 43 43 43 43 42 42 42 43 43 43 43 43 43 43 43 43 43 43 44 44 44 44 41 40 41 41 37 35 35 36 38 40 41 41 41 41 40 38
57 58 58 59 61 62 63 61 59 58 58 58 58 58 59 58 52 50 51 52 51 51 51 53 56 59 61 61 61 60 60 61 60 59 58 56 55 55 55 53 51 49 47 46 46 45 43 42 41 41 41 41 42 43 43 43 44 44 44 44 44 43 44 44 43 43 43 44 44 44 44 42 40 40 41 40 38 36 35 36 38 39 41 41 41 41 40 40
56 56 58 60 61 62 64 64 62 60 60 60 60 61 60 54 49 49 48 48 49 51 52 54 56 60 62 63 63 62 61 61 60 60 60 58 57 56 55 53 50 48 47 45 46 45 45 44 42 42 42 42 43 43 44 45 45 45 45 44 44 43 44 44 44 44 44 45 45 45 43 41 39 40 40 39 38 36 35 35 36 38 39 40 41 41 41 41
55 56 59 61 62 63 65 65 64 63 63 63 63 63 58 51 49 50 48 48 50 52 56 56 56 59 62 64 64 64 63 62 62 61 61 60 60 58 56 54 51 49 47 45 45 44 44 44 43 43 43 43 43 43 44 44 44 45 44 44 43 43 44 43 44 45 45 46 46 44 42 40 40 39 38 38 38 37 35 35 35 36 37 39 40 41 41 41
56 55 58 62 64 65 66 66 66 65 64 65 65 63 58 54 53 53 51 49 50 53 57 57 56 57 59 62 64 64 65 65 64 63 63 63 62 59 58 56 53 51 50 48 48 47 46 46 46 45 45 44 44 44 44 44 43 44 43 43 42 43 43 42 43 44 44 44 44 43 42 40 39 38 37 37 37 36 35 34 34 35 36 37 39 39 39 39
58 57 58 61 64 66 69 69 68 67 67 68 67 64 61 59 57 55 52 50 51 54 56 57 58 57 57 59 61 63 64 65 65 65 65 64 63 60 59 58 55 53 52 51 51 51 50 49 49 48 47 47 47 46 45 44 43 43 43 43 43 43 43 42 42 43 43 43 44 44 43 41 38 37 37 37 37 37 36 35 35 35 35 35 36 37 37 38
56 59 60 61 64 67 70 71 70 69 69 69 66 63 62 63 61 58 56 54 53 55 57 57 58 58 58 58 59 61 62 62 63 64 64 64 63 61 59 59 58 56 55 54 53 53 52 52 51 50 50 49 49 48 46 45 44 44 43 43 42 41 42 42 42 42 43 44 45 46 46 42 38 37 37 36 37 37 37 37 36 35 35 35 35 36 37 38
53 57 59 59 62 68 72 73 72 71 70 68 66 65 65 66 64 61 60 58 56 55 56 57 57 58 58 58 58 59 60 61 61 61 62 62 62 60 57 58 58 57 57 58 57 55 54 53 53 53 52 51 49 48 47 46 45 44 43 42 41 40 40 41 42 42 43 44 45 46 47 43 37 37 37 36 38 38 37 37 36 36 36 36 36 37 38 39
52 55 57 58 60 66 72 74 73 72 71 68 67 68 68 68 65 62 61 61 59 57 56 58 58 58 58 59 58 58 58 59 60 60 61 61 60 59 57 57 58 59 59 59 58 57 56 55 54 54 52 51 50 50 49 48 47 46 45 44 43 43 42 43 44 43 43 44 44 44 46 42 37 37 38 38 38 38 37 37 37 36 36 36 37 38 39 39
51 53 55 57 56 58 66 74 75 74 71 69 68 68 68 68 66 65 63 62 61 59 57 58 59 59 59 59 59 59 58 58 59 59 58 59 59 59 59 59 59 60 61 61 61 60 59 58 57 56 54 54 53 52 51 50 49 48 47 45 46 46 45 45 45 44 44 44 43 43 45 42 36 36 38 39 39 39 38 38 37 37 37 38 38 38 39 40
50 50 52 54 53 54 60 69 73 72 69 69 70 69 68 68 67 66 64 63 62 60 58 58 58 59 59 59 59 59 59 58 59 58 58 59 60 60 60 61 60 61 62 62 62 62 62 62 61 59 58 58 57 56 55 53 52 50 49 48 49 49 47 47 47 47 46 45 43 43 44 40 36 36 38 40 39 38 38 38 38 38 38 39 39 39 41 41
53 51 50 51 52 53 54 58 64 68 68 70 72 71 69 69 69 67 65 63 62 61 59 58 58 58 58 59 60 60 59 59 59 59 59 59 60 60 61 62 61 61 61 61 61 62 62 64 64 63 62 62 61 60 57 54 53 52 51 50 50 50 49 49 48 49 48 46 45 45 42 38 37 38 40 41 41 39 39 38 38 39 39 39 41 42 42 43
52 53 53 51 51 51 50 51 56 63 68 71 71 71 71 70 69 69 66 64 63 62 60 58 58 59 59 60 60 60 60 59 59 60 59 60 61 61 61 62 62 61 60 60 61 62 63 64 65 65 65 64 62 60 57 55 54 54 52 51 50 50 50 50 51 51 49 47 48 47 42 40 41 42 43 43 42 41 40 39 39 39 40 41 43 45 45 45
47 51 54 53 51 51 51 52 53 55 61 67 70 71 72 70 69 69 68 66 64 62 61 59 59 60 60 59 60 60 60 60 60 60 60 60 61 61 61 61 62 61 61 60 61 62 63 65 66 67 67 65 63 62 62 61 59 58 56 55 54 52 52 52 53 52 49 50 52 47 43 44 45 44 44 44 43 43 42 42 42 42 44 45 46 48 49 49
46 46 49 52 52 52 50 49 49 50 55 62 68 71 71 70 69 68 68 67 64 62 61 60 60 60 59 58 59 60 60 61 61 61 61 60 61 62 62 62 62 63 62 62 62 62 63 65 66 67 67 66 65 66 66 65 63 62 61 60 59 57 57 57 56 55 53 55 55 49 47 49 47 45 45 46 47 47 45 46 46 47 49 49 49 49 51 53
45 46 46 48 51 51 48 46 48 51 55 59 65 68 70 71 69 68 67 67 66 64 62 60 58 58 58 58 59 60 61 62 61 61 62 62 62 62 62 62 63 63 62 62 62 62 63 64 65 66 67 66 66 67 67 66 66 65 64 64 63 62 61 60 59 58 58 58 56 51 51 53 50 47 46 46 49 50 49 50 51 50 51 51 51 52 53 55
43 45 46 46 48 49 49 48 48 50 53 57 61 65 68 69 69 68 67 67 66 65 64 61 58 57 57 58 59 60 60 60 59 60 61 62 62 62 61 61 60 60 61 60 60 60 61 62 63 63 64 65 66 66 66 67 68 68 67 66 65 64 63 62 61 60 60 60 56 53 56 55 50 47 46 47 49 51 52 53 53 53 53 52 53 54 55 56
46 45 46 46 47 48 50 49 49 49 50 52 54 58 63 67 68 68 67 67 66 65 63 61 60 59 59 59 60 59 58 59 60 61 61 61 60 59 58 57 56 56 57 57 57 57 58 59 60 60 61 64 64 63 64 65 66 67 68 67 66 66 65 64 63 61 61 60 57 56 58 55 49 48 47 48 50 52 53 54 54 54 54 55 56 57 58 59
53 48 46 44 45 48 49 48 49 51 51 48 47 50 57 62 66 67 67 67 66 65 63 62 61 62 61 61 58 56 57 59 60 61 61 61 61 60 58 57 56 55 55 55 55 55 55 56 57 58 59 60 61 61 61 62 64 67 67 65 65 65 65 65 64 62 62 61 60 61 60 55 52 53 52 51 52 53 53 53 54 54 56 58 60 61 62 62
Wind_Direction
209 210 210 209 209 209 209 209 209 208 208 208 208 207 208 209 210 213 215 218 222 227 229 227 225 223 223 222 222 223 222 222 221 221 216 215 212 201 194 192 190 188 186 185 187 188 188 189 189 188 187 184 183 183 182 179 177 176 174 173 175 177 178 182 185 182 184 192 198 200 196 194 197 199 199 194 186 182 184 184 183 186 189 183 173 164 161 166
209 210 211 209 209 208 209 210 210 210 209 210 210 207 207 208 210 212 214 217 220 224 228 229 226 224 225 223 223 223 222 222 221 221 219 215 213 202 193 191 189 186 186 185 186 187 187 188 188 188 187 184 184 184 182 180 177 176 174 174 176 178 180 183 185 183 184 192 198 200 199 199 203 207 207 199 189 186 185 187 187 187 189 187 184 174 167 168
210 210 212 210 209 208 209 209 210 211 210 211 211 209 208 208 209 210 213 215 217 220 224 226 224 222 224 222 221 224 222 221 221 221 220 217 212 203 194 190 187 186 186 185 186 186 187 188 188 187 187 185 184 184 182 180 178 177 176 177 178 179 182 185 186 184 185 190 197 201 202 203 207 212 215 209 198 189 184 186 188 188 189 190 191 184 176 172
210 211 213 211 210 209 209 209 210 211 211 212 212 211 208 208 209 209 211 213 213 214 217 219 220 224 227 222 219 223 224 222 221 220 218 216 210 203 195 189 186 186 186 185 185 187 187 188 188 187 186 185 185 184 182 180 180 179 179 179 178 180 184 187 187 186 185 188 195 201 205 206 209 215 220 216 205 192 186 186 187 188 190 191 192 189 184 177
210 211 213 213 211 210 209 209 210 211 212 212 213 212 208 207 208 208 210 211 210 211 215 215 214 221 225 223 218 219 221 220 220 218 216 214 208 200 193 189 187 187 186 185 186 187 188 188 188 188 186 185 185 184 181 180 181 181 181 180 179 182 185 188 189 189 187 188 194 200 206 209 209 215 220 216 207 197 192 191 191 190 189 189 193 192 189 179
210 211 214 214 212 211 210 210 210 211 212 212 213 212 209 207 207 207 208 209 208 207 214 215 214 219 224 223 216 212 216 217 216 214 212 210 205 197 190 187 187 186 186 186 186 188 189 189 189 189 187 186 186 184 182 182 183 183 182 180 181 184 187 188 190 190 189 189 194 200 207 210 209 213 218 216 211 204 200 198 197 197 193 189 191 193 191 181
211 211 214 215 213 212 211 211 211 212 212 212 213 212 209 206 206 207 207 208 206 201 207 212 215 220 224 224 216 211 214 216 214 211 208 204 200 194 189 188 188 186 187 187 187 188 189 190 190 189 187 187 187 185 183 184 185 185 183 182 183 186 188 188 190 192 191 191 195 201 206 209 211 213 215 216 215 209 205 204 202 201 197 191 190 191 190 183
211 211 214 216 214 213 212 211 211 212 213 213 213 213 210 207 205 206 207 208 208 204 205 211 215 219 221 221 214 211 214 215 212 207 204 199 194 191 189 188 189 187 188 188 188 189 190 190 190 190 188 188 188 186 185 186 187 187 185 184 185 188 189 189 191 193 194 193 197 203 207 209 213 215 214 216 216 212 210 209 206 204 200 194 191 189 186 184
210 210 213 216 215 214 213 212 212 212 213 213 213 213 211 208 205 205 207 209 210 211 211 213 216 218 219 215 211 211 212 214 210 201 199 195 189 188 188 189 190 190 189 189 190 191 191 191 191 190 190 189 188 187 187 188 189 189 188 187 188 190 190 191 193 195 196 196 199 205 208 210 215 216 216 216 214 213 214 213 211 208 204 196 192 188 186 186
210 209 212 216 216 215 213 212 212 213 213 213 213 214 212 209 206 205 207 210 212 214 215 216 217 219 219 214 211 209 210 213 207 197 195 191 186 187 188 189 190 191 191 191 192 192 192 193 192 191 191 190 189 189 189 189 190 191 191 191 191 192 191 193 195 196 198 197 200 206 210 212 214 214 215 216 215 217 217 214 213 210 204 199 194 190 188 189
211 209 212 216 218 216 214 213 213 213 214 214 213 213 212 209 207 206 207 210 213 216 218 218 218 221 220 216 211 207 208 212 204 193 191 187 184 187 189 191 191 192 192 192 193 193 194 194 193 192 192 192 191 190 191 191 191 193 194 193 195 195 193 195 196 198 199 200 203 206 212 214 215 214 214 218 219 220 220 215 212 207 203 201 197 195 192 192
211 208 210 215 218 218 215 214 213 213 214 214 213 213 212 209 207 206 207 211 214 216 219 219 219 222 222 218 210 206 207 210 201 190 188 184 184 188 190 192 192 192 193 193 194 195 195 195 194 194 194 194 194 193 193 192 193 195 196 195 197 198 197 196 197 199 199 201 204 207 212 214 217 217 213 217 221 222 221 218 213 208 206 204 201 201 198 198
210 208 209 214 218 218 217 215 214 214 214 214 213 212 212 209 207 206 207 211 213 215 218 220 221 222 224 216 206 205 206 205 197 188 185 183 184 188 190 193 193 193 193 194 195 195 196 196 196 196 196 196 197 196 195 194 195 197 198 198 199 201 200 197 198 200 200 202 205 208 211 214 220 221 213 216 222 223 223 221 217 210 208 207 206 205 203 205
209 208 208 212 217 218 217 216 216 215 215 214 213 212 211 209 207 206 207 210 212 214 217 220 222 222 224 212 202 204 204 200 194 186 184 184 185 189 191 193 194 194 194 195 196 196 197 198 198 198 198 198 199 198 197 197 197 199 200 200 200 202 203 201 201 204 203 203 207 210 209 215 224 224 216 218 223 225 226 225 221 215 210 209 209 208 208 211
208 208 207 211 216 217 217 216 216 216 216 215 214 213 211 209 207 206 207 209 211 213 215 219 222 223 221 208 202 205 202 195 190 185 185 186 187 190 192 194 195 195 196 197 197 198 199 200 200 201 200 201 201 201 201 200 200 201 202 203 202 202 205 205 205 207 208 207 210 213 210 216 226 226 222 223 226 227 230 230 225 220 216 213 213 213 213 216
208 208 207 210 215 217 217 216 216 217 217 216 214 214 212 209 207 205 206 208 210 211 213 217 220 222 215 206 203 204 200 192 186 184 186 189 191 193 193 195 196 196 198 198 199 199 200 201 202 202 203 203 204 204 204 204 203 204 205 205 203 203 206 210 210 209 211 212 214 216 213 217 226 227 226 229 230 229 230 231 227 225 222 218 218 218 218 219
206 208 207 209 214 216 216 216 216 217 217 216 215 213 212 210 207 206 206 207 209 210 212 214 217 217 210 206 205 203 198 191 186 184 186 189 193 195 196 196 197 198 199 200 201 201 202 203 203 204 205 206 206 206 206 206 206 206 207 207 206 205 208 213 216 215 215 216 217 219 215 218 225 226 225 232 235 231 228 230 229 229 227 222 222 223 222 223
205 206 207 208 212 215 215 214 216 217 217 217 215 213 212 210 208 206 206 206 208 209 211 212 213 213 208 206 205 202 199 192 187 185 185 188 192 196 197 198 199 200 200 201 202 203 203 204 205 205 206 207 208 208 209 209 209 211 212 213 212 212 212 214 218 220 220 219 219 220 217 219 226 227 225 231 237 235 231 232 231 230 229 226 225 226 226 226
204 205 206 207 211 214 213 213 215 216 217 217 216 214 213 211 208 206 205 206 208 210 211 212 213 212 208 204 203 202 200 195 190 187 186 188 191 194 198 199 201 202 202 203 204 205 205 206 206 205 205 206 208 210 212 213 214 216 216 216 216 216 216 216 219 221 223 223 222 223 220 221 227 229 227 230 236 238 237 235 233 231 232 232 230 230 230 230
203 204 205 206 210 213 213 212 214 215 216 217 217 216 214 213 210 207 206 206 208 211 212 212 211 210 205 202 203 204 202 198 194 191 189 190 192 194 197 199 201 202 203 205 206 208 208 208 207 206 207 209 212 214 215 216 217 217 217 217 217 218 219 220 221 223 225 227 228 228 225 224 229 231 230 231 234 237 239 237 234 234 235 236 235 235 234 233
201 203 204 205 209 212 212 211 213 214 215 216 217 216 215 215 214 211 208 207 208 209 211 210 208 207 205 202 204 206 206 201 198 195 193 193 194 196 198 198 200 202 204 205 206 208 210 209 208 209 212 214 216 216 217 217 218 219 219 220 221 222 223 224 225 225 227 230 231 232 231 227 229 233 235 236 235 234 236 237 235 236 239 240 240 239 237 236
200 202 203 205 209 211 211 211 212 214 215 216 217 216 214 213 213 212 211 210 210 210 210 208 206 205 205 204 204 206 208 205 201 200 198 197 197 198 200 200 200 202 204 206 207 208 209 209 209 212 214 215 216 216 217 218 219 220 221 222 224 226 227 229 229 229 230 232 234 235 236 232 231 236 240 241 237 232 234 237 236 238 240 242 242 240 238 238
199 201 203 205 208 211 211 210 211 213 214 215 216 215 213 212 212 210 209 210 210 210 210 209 207 204 204 204 203 204 207 206 204 204 202 200 200 200 201 202 203 204 205 206 208 209 210 210 212 214 214 216 217 218 219 219 220 221 223 225 227 229 231 232 233 233 233 235 236 238 239 236 234 239 242 244 240 234 235 237 236 239 240 240 242 241 240 239
199 201 203 205 208 210 211 210 210 212 213 213 213 213 213 212 213 211 210 209 209 209 209 209 208 206 204 204 204 204 206 206 206 206 204 203 203 202 202 204 205 206 206 207 208 209 210 212 214 216 217 218 219 219 220 221 222 223 225 227 229 230 232 233 234 235 235 236 238 239 241 239 237 239 240 243 244 238 236 238 237 238 240 240 242 242 241 241
199 201 203 205 208 210 211 210 209 211 212 213 213 213 213 213 213 213 212 211 210 209 208 207 207 207 206 205 205 205 206 207 207 207 205 204 204 204 203 204 205 206 207 208 210 210 210 211 213 215 218 220 222 222 223 223 225 225 227 229 230 232 234 235 236 237 238 239 240 242 244 243 239 240 240 242 245 242 239 239 237 238 240 241 242 243 243 242
200 201 203 206 208 210 212 211 210 210 211 213 212 212 213 214 214 213 213 213 212 210 209 207 207 207 207 207 207 207 208 208 208 208 206 205 204 203 204 205 205 206 208 210 211 211 210 212 213 214 216 218 220 222 223 224 226 227 229 231 233 235 236 237 238 239 240 241 242 243 246 246 241 241 243 243 244 244 241 239 238 239 241 241 242 244 246 246
201 201 203 205 208 210 212 212 211 210 211 213 212 212 213 214 215 214 214 215 213 211 210 209 208 208 208 209 209 208 209 209 209 209 208 207 205 204 204 204 205 206 208 211 211 211 211 212 214 215 217 218 219 221 222 224 226 228 230 232 234 236 237 238 238 239 240 241 243 244 246 249 245 241 243 245 244 243 243 241 239 240 241 242 242 245 247 248
203 203 203 204 206 209 211 212 211 211 212 213 212 212 213 214 216 216 216 217 214 211 211 210 209 209 209 210 211 211 211 211 211 211 209 208 207 206 205 204 204 206 208 211 211 211 213 214 216 218 219 220 221 223 224 225 227 228 229 231 233 235 236 237 238 239 240 241 242 244 246 249 248 243 243 245 245 244 243 242 241 242 243 244 244 245 247 249
204 204 205 205 206 208 210 211 210 210 212 213 211 212 213 214 215 216 217 217 214 211 212 211 210 210 210 210 212 213 213 213 213 214 212 211 209 207 207 205 205 207 208 210 210 211 213 214 216 218 219 220 221 224 225 226 228 228 229 231 232 234 235 237 238 238 240 240 242 244 245 249 251 247 243 245 246 245 243 243 243 244 244 245 244 245 247 249
206 206 207 206 207 209 211 213 213 212 212 213 213 213 214 215 216 217 217 216 214 213 212 212 212 212 212 211 212 214 215 215 215 216 215 214 212 209 208 207 207 209 210 210 211 211 212 214 215 216 218 219 220 223 224 225 227 228 229 231 232 234 235 236 238 239 240 241 242 244 245 249 251 250 246 245 246 246 244 243 244 244 245 246 246 247 248 249
206 207 208 208 209 210 212 214 215 214 214 214 214 214 214 216 217 218 217 215 217 215 213 213 213 213 214 214 215 215 216 216 216 217 217 216 214 211 210 209 209 209 210 211 212 213 213 215 215 216 217 218 220 222 224 225 226 227 229 230 232 233 234 236 237 238 240 242 243 245 246 248 251 253 251 247 245 246 245 243 243 244 245 247 248 249 249 250
207 208 208 208 210 211 212 214 214 215 215 215 216 215 215 216 217 217 214 214 219 218 214 214 215 214 215 215 216 217 217 217 217 218 219 218 216 214 212 211 211 211 212 212 213 214 215 217 217 218 218 219 221 223 224 225 226 227 228 229 230 232 233 234 236 238 240 243 245 247 247 249 251 255 256 252 246 244 244 244 245 245 246 247 249 250 250 251
207 208 209 209 210 212 213 214 214 215 216 216 217 216 216 217 217 215 213 214 218 218 215 215 216 215 216 216 216 217 217 218 219 220 220 219 217 215 213 212 212 214 215 216 217 218 218 219 219 220 221 222 223 225 227 228 229 231 232 233 234 235 236 237 239 241 243 245 246 248 248 249 250 252 254 254 250 247 246 246 246 246 246 247 248 250 251 251
207 209 209 209 211 213 214 215 216 217 218 218 219 218 218 219 217 215 215 215 217 217 215 216 216 216 217 217 217 218 217 217 218 220 222 221 219 215 213 212 211 213 215 217 220 222 223 223 223 224 225 225 227 228 229 230 232 233 234 235 236 238 239 241 241 243 244 244 246 246 247 248 249 250 252 254 254 251 249 246 245 245 245 246 247 249 251 252
207 209 210 211 212 213 215 216 217 218 220 220 220 220 221 221 218 217 218 218 218 218 217 217 217 218 218 218 217 218 219 218 218 219 221 222 222 219 216 214 212 212 213 215 217 219 222 223 224 226 227 229 230 231 231 232 232 233 234 235 236 237 239 240 241 242 243 244 245 246 247 248 249 250 251 254 255 253 251 248 246 245 246 246 247 248 251 252
208 209 210 211 212 214 216 217 217 219 221 222 223 224 224 222 219 221 223 221 220 220 220 218 218 218 219 219 218 218 219 220 220 220 222 223 224 221 218 216 216 215 215 218 220 220 221 222 222 224 227 228 230 232 233 233 234 235 236 237 238 240 240 241 243 244 244 245 246 246 247 248 249 249 251 254 255 255 253 251 250 249 249 250 250 251 252 253
209 209 211 213 213 214 216 217 218 219 220 223 226 227 225 222 220 222 223 222 221 220 221 220 219 220 220 220 220 220 220 220 220 221 223 224 225 223 220 217 217 217 218 220 224 225 226 226 226 227 229 229 231 233 234 235 235 236 237 238 239 240 240 241 242 243 244 246 247 247 248 248 248 249 251 253 256 257 256 254 252 252 252 252 253 254 255 256
209 210 212 214 214 215 216 217 218 219 220 222 225 225 223 222 221 221 221 221 221 222 222 221 220 221 222 222 222 222 222 222 222 223 223 225 227 226 222 219 217 217 219 221 224 225 226 228 228 228 230 231 232 234 234 235 236 237 238 238 238 240 240 241 243 244 246 248 249 249 248 248 248 250 251 253 255 257 257 256 254 253 252 252 254 256 257 258
210 211 213 214 214 215 217 217 218 219 219 221 223 223 221 221 222 222 223 222 221 222 224 223 221 221 222 223 224 224 225 225 225 225 226 227 229 228 225 222 219 219 220 222 225 226 227 229 230 229 230 231 233 233 234 235 236 237 238 238 238 240 241 242 243 245 247 248 250 250 249 248 248 249 250 252 253 256 258 257 256 255 254 254 256 257 258 259
211 212 215 215 215 216 217 218 217 217 219 222 223 223 222 222 222 221 222 224 222 222 223 224 222 222 222 222 223 224 226 227 227 228 229 230 232 232 227 224 222 221 223 225 226 228 229 231 232 232 232 232 233 234 235 236 237 238 239 239 240 241 242 243 244 245 246 248 249 249 248 246 246 248 248 250 253 255 257 258 258 259 259 259 259 258 258 259
215 215 216 217 217 217 217 219 219 218 221 223 224 223 223 223 223 222 222 224 224 222 223 225 223 222 223 223 224 224 225 227 227 228 229 231 232 233 230 227 226 225 226 228 228 229 231 232 234 235 235 235 236 237 237 238 239 240 240 241 241 242 243 244 244 244 245 247 248 249 248 245 245 248 248 249 251 252 255 258 259 261 261 261 261 260 260 260
219 219 219 219 220 220 219 220 221 222 223 223 223 224 223 223 224 224 224 225 226 223 222 224 224 223 223 223 224 225 226 227 227 228 228 230 231 233 232 231 230 230 230 231 232 232 234 236 237 238 239 238 238 238 239 239 240 240 240 240 241 242 242 243 245 245 245 247 248 251 251 246 245 250 251 250 251 252 254 256 258 260 260 262 263 263 263 263
220 220 220 221 223 222 220 220 221 222 223 223 224 225 225 224 224 225 225 226 229 227 224 224 224 224 223 223 223 225 225 226 227 228 228 229 230 231 232 231 231 232 233 233 234 234 236 238 239 240 241 241 241 241 241 241 241 241 241 242 243 244 244 245 246 246 247 248 249 252 252 248 247 251 253 253 253 254 255 257 259 260 260 262 263 264 265 265
218 218 218 220 221 222 221 221 221 222 222 223 224 225 226 225 225 226 225 226 229 230 227 226 226 225 224 224 224 224 225 226 227 227 228 228 228 229 231 232 232 233 234 235 236 237 237 238 238 239 240 240 240 240 240 240 241 241 242 242 243 245 245 246 247 248 249 249 250 253 253 250 251 253 254 256 256 256 258 259 260 262 263 264 265 266 267 267
217 217 217 218 219 221 222 223 223 223 224 223 224 224 225 226 226 227 227 227 228 230 229 227 227 226 226 225 225 225 225 226 226 227 227 227 228 228 230 232 232 233 234 235 236 238 239 240 240 240 240 240 240 240 240 242 244 245 244 245 247 249 250 251 251 251 251 251 252 253 253 252 254 255 255 257 258 258 259 261 263 265 266 267 268 267 267 268
218 217 216 216 218 220 222 221 221 223 224 225 225 225 225 226 226 227 228 228 228 229 230 228 226 226 226 226 226 226 226 227 227 227 227 227 228 229 230 231 232 233 233 234 235 236 238 240 240 241 241 241 242 243 244 245 247 248 249 250 251 252 253 253 253 253 253 254 254 253 253 251 251 253 255 257 260 262 262 263 264 266 267 266 267 267 267 268
217 218 219 218 217 218 220 220 220 221 223 224 225 225 226 226 227 227 228 229 229 230 230 229 227 226 226 226 227 227 227 227 228 228 228 228 229 229 229 230 232 232 232 233 234 235 237 239 240 241 243 243 243 243 244 244 245 246 246 247 248 249 250 251 252 252 252 254 252 250 251 250 248 252 257 259 261 263 264 264 263 264 264 263 264 266 267 268
215 217 220 221 219 218 218 220 220 221 222 223 224 225 225 226 226 227 228 229 230 230 231 231 229 228 227 227 228 228 228 228 228 228 229 230 230 230 230 231 232 233 233 233 234 235 236 238 239 241 243 243 244 244 244 245 245 245 245 246 246 247 248 248 250 250 250 252 252 251 252 252 250 252 256 259 262 263 263 264 263 263 263 264 265 267 269 270
212 217 220 221 220 219 219 220 221 222 223 224 224 224 225 225 226 227 228 230 231 231 232 233 232 231 230 228 228 229 229 229 229 229 230 231 232 232 232 232 233 234 235 235 235 236 237 238 239 240 241 242 242 243 244 245 246 246 246 247 247 247 248 249 250 251 251 254 255 254 255 255 254 255 258 261 264 265 265 266 266 266 267 268 269 270 270 271
207 214 219 221 221 219 217 217 220 221 223 225 225 225 225 226 226 227 228 229 231 232 232 234 235 235 234 232 230 229 230 231 231 230 231 233 233 233 234 234 234 235 236 237 236 237 238 239 240 241 242 242 242 243 244 245 246 246 246 246 246 247 248 249 250 252 254 256 257 257 257 257 257 259 261 262 264 266 267 268 269 270 271 271 271 270 270 270
206 207 215 221 221 220 217 216 217 220 222 224 226 226 227 227 227 228 229 229 230 232 232 234 235 237 236 235 233 231 231 232 232 232 232 233 234 235 235 236 236 236 237 239 240 240 240 241 241 242 243 244 244 245 246 246 247 247 246 245 246 248 250 252 254 255 257 258 258 258 258 258 259 260 260 261 262 263 265 268 270 271 271 271 270 270 270 270
212 207 208 215 219 220 219 216 216 219 220 222 225 227 227 228 229 230 230 230 231 232 233 233 235 237 238 238 237 235 233 234 234 234 234 234 234 235 235 236 235 235 236 238 240 241 242 242 243 244 245 246 246 247 247 248 247 247 247 248 250 252 253 254 255 255 256 258 258 258 259 260 261 259 258 258 259 260 262 264 267 268 269 269 269 270 271 272
Height
5701 5704 5707 5711 5714 5718 5722 5726 5729 5733 5736 5739 5742 5746 5749 5752 5755 5758 5761 5763 5766 5768 5770 5773 5776 5778 5780 5783 5785 5787 5790 5792 5795 5798 5801 5803 5805 5807 5810 5814 5817 5822 5826 5830 5835 5839 5842 5846 5849 5853 5856 5859 5862 5864 5866 5868 5870 5872 5874 5876 5878 5880 5882 5883 5885 5886 5887 5889 5890 5891 5892 5892 5893 5893 5893 5894 5894 5895 5895 5895 5896 5896 5897 5897 5898 5899 5899 5899
5697 5700 5704 5707 5711 5715 5719 5722 5726 5730 5733 5736 5739 5743 5746 5749 5752 5755 5758 5761 5763 5766 5768 5771 5774 5776 5778 5780 5782 5784 5786 5789 5792 5795 5797 5801 5804 5805 5807 5811 5815 5820 5824 5827 5832 5837 5840 5844 5848 5851 5855 5858 5861 5863 5866 5867 5870 5871 5873 5875 5876 5878 5880 5882 5884 5886 5887 5888 5889 5890 5891 5891 5892 5892 5893 5893 5894 5894 5895 5895 5895 5896 5896 5897 5898 5898 5899 5899
5694 5697 5700 5704 5708 5712 5715 5719 5723 5727 5730 5733 5736 5740 5744 5746 5749 5752 5755 5758 5761 5764 5767 5770 5772 5774 5776 5778 5780 5781 5783 5786 5789 5792 5795 5799 5801 5803 5806 5809 5813 5817 5821 5825 5830 5835 5838 5842 5845 5849 5853 5857 5860 5862 5865 5867 5869 5870 5871 5873 5875 5877 5879 5881 5883 5885 5886 5887 5888 5889 5890 5890 5891 5892 5892 5893 5893 5894 5894 5895 5895 5896 5896 5897 5897 5898 5899 5899
5691 5694 5698 5701 5705 5709 5712 5716 5720 5723 5727 5730 5733 5737 5741 5744 5746 5749 5753 5756 5759 5761 5765 5768 5771 5773 5774 5776 5777 5779 5781 5784 5786 5789 5793 5797 5799 5801 5805 5808 5812 5816 5820 5824 5828 5833 5836 5840 5844 5847 5851 5855 5858 5861 5863 5865 5867 5868 5870 5871 5873 5876 5878 5880 5882 5883 5885 5886 5887 5888 5889 5889 5890 5891 5891 5892 5893 5893 5894 5894 5895 5895 5896 5897 5897 5898 5898 5899
5688 5691 5695 5698 5702 5706 5710 5713 5717 5720 5724 5727 5731 5734 5738 5741 5744 5747 5750 5754 5757 5760 5763 5766 5770 5772 5772 5773 5775 5776 5779 5781 5783 5787 5791 5794 5796 5799 5803 5808 5812 5816 5820 5823 5827 5831 5835 5839 5842 5846 5849 5853 5856 5859 5862 5864 5866 5867 5868 5870 5872 5874 5876 5878 5880 5882 5883 5885 5886 5887 5888 5888 5889 5890 5890 5891 5892 5892 5893 5893 5894 5895 5895 5896 5897 5897 5898 5898
5685 5689 5692 5696 5699 5703 5707 5710 5714 5718 5721 5724 5728 5732 5736 5739 5742 5745 5748 5751 5755 5758 5761 5764 5768 5769 5769 5771 5774 5775 5776 5778 5781 5785 5788 5791 5793 5797 5801 5806 5810 5814 5818 5822 5825 5829 5834 5837 5841 5844 5848 5852 5856 5859 5862 5864 5865 5866 5867 5869 5871 5873 5875 5877 5878 5880 5882 5883 5884 5886 5887 5888 5888 5889 5889 5890 5891 5892 5892 5893 5893 5894 5895 5896 5896 5897 5897 5898
5683 5686 5689 5693 5696 5700 5704 5708 5712 5715 5718 5721 5725 5729 5733 5736 5740 5743 5746 5749 5753 5756 5758 5761 5764 5766 5767 5769 5772 5773 5774 5777 5779 5783 5785 5788 5791 5794 5799 5804 5808 5812 5816 5820 5824 5828 5832 5836 5840 5843 5847 5851 5855 5858 5860 5862 5864 5865 5866 5867 5869 5871 5873 5875 5877 5878 5880 5881 5883 5884 5885 5886 5887 5888 5888 5889 5890 5891 5892 5892 5893 5893 5894 5895 5896 5896 5897 5897
5680 5683 5686 5690 5694 5698 5701 5705 5709 5712 5716 5719 5722 5726 5730 5734 5737 5741 5744 5747 5750 5754 5756 5758 5761 5763 5765 5767 5769 5771 5773 5775 5777 5780 5783 5785 5788 5792 5797 5802 5807 5811 5815 5819 5823 5827 5831 5835 5838 5842 5846 5849 5853 5856 5858 5860 5862 5863 5864 5866 5868 5869 5871 5873 5875 5876 5878 5880 5881 5882 5884 5885 5886 5886 5887 5888 5889 5890 5891 5892 5892 5893 5893 5894 5895 5896 5896 5897
5676 5680 5684 5687 5691 5695 5699 5702 5706 5710 5713 5716 5719 5723 5727 5731 5735 5739 5742 5745 5748 5751 5754 5756 5758 5760 5763 5765 5767 5769 5771 5772 5774 5777 5780 5783 5787 5791 5795 5800 5806 5810 5814 5817 5821 5825 5829 5833 5836 5840 5844 5847 5851 5854 5856 5858 5860 5861 5863 5864 5866 5868 5870 5872 5873 5875 5876 5878 5879 5881 5882 5884 5885 5885 5886 5887 5888 5889 5890 5891 5891 5892 5893 5894 5894 5895 5896 5896
5673 5678 5682 5685 5689 5693 5696 5700 5704 5707 5711 5714 5717 5720 5724 5729 5732 5736 5739 5742 5745 5748 5751 5753 5755 5758 5760 5762 5764 5767 5768 5769 5771 5774 5777 5781 5785 5789 5794 5798 5803 5808 5812 5816 5820 5824 5828 5831 5834 5837 5841 5845 5848 5851 5854 5856 5858 5859 5861 5863 5864 5866 5868 5870 5871 5873 5875 5876 5878 5880 5881 5883 5884 5885 5885 5886 5887 5888 5889 5890 5890 5891 5892 5893 5894 5894 5895 5895
5670 5676 5679 5683 5686 5690 5694 5697 5701 5705 5708 5712 5715 5718 5722 5726 5730 5734 5737 5740 5743 5745 5748 5750 5753 5755 5757 5759 5762 5765 5766 5767 5769 5772 5775 5779 5784 5788 5792 5797 5801 5806 5810 5814 5818 5821 5825 5829 5832 5835 5838 5842 5845 5848 5851 5853 5856 5857 5859 5860 5862 5864 5866 5868 5870 5872 5873 5875 5877 5878 5880 5882 5883 5883 5884 5885 5886 5887 5888 5889 5890 5890 5891 5892 5893 5893 5894 5894
5667 5673 5677 5680 5684 5688 5692 5695 5699 5702 5706 5709 5712 5716 5719 5723 5727 5731 5734 5737 5740 5742 5745 5747 5750 5752 5754 5757 5760 5761 5763 5765 5767 5770 5773 5777 5782 5787 5791 5795 5799 5803 5807 5811 5815 5819 5823 5826 5829 5832 5836 5840 5843 5846 5848 5851 5853 5855 5857 5858 5860 5862 5864 5866 5868 5870 5872 5874 5875 5877 5879 5880 5881 5882 5883 5883 5884 5886 5886 5887 5888 5889 5890 5891 5891 5892 5893 5893
5664 5669 5674 5678 5681 5685 5689 5693 5697 5700 5703 5707 5710 5713 5716 5720 5724 5728 5732 5735 5738 5740 5742 5744 5747 5750 5752 5755 5757 5758 5760 5763 5766 5769 5772 5776 5781 5785 5789 5794 5798 5801 5805 5808 5812 5817 5821 5824 5827 5830 5833 5837 5840 5843 5846 5849 5851 5853 5855 5857 5858 5859 5862 5865 5867 5869 5871 5872 5874 5875 5877 5879 5879 5880 5882 5882 5883 5884 5885 5886 5887 5889 5889 5890 5891 5891 5892 5892
5661 5666 5671 5675 5678 5683 5687 5691 5694 5698 5701 5704 5707 5710 5714 5717 5721 5725 5729 5732 5735 5737 5740 5742 5745 5747 5749 5752 5755 5756 5758 5761 5764 5768 5771 5775 5779 5784 5788 5792 5795 5799 5803 5806 5810 5814 5818 5822 5825 5828 5831 5834 5838 5841 5844 5847 5849 5851 5853 5854 5856 5858 5861 5863 5865 5867 5869 5871 5873 5874 5876 5877 5877 5879 5880 5881 5882 5882 5883 5884 5886 5887 5888 5889 5889 5890 5891 5891
5658 5663 5667 5671 5675 5680 5684 5688 5692 5696 5699 5702 5705 5708 5711 5715 5718 5722 5726 5729 5732 5735 5737 5739 5742 5745 5747 5750 5752 5754 5756 5760 5762 5766 5770 5774 5778 5782 5786 5790 5793 5797 5801 5804 5807 5811 5815 5819 5823 5826 5829 5832 5835 5839 5841 5844 5846 5848 5850 5852 5855 5858 5860 5862 5864 5866 5868 5870 5871 5872 5874 5875 5875 5877 5878 5879 5880 5881 5882 5883 5885 5886 5887 5888 5888 5889 5889 5890
5655 5659 5664 5668 5672 5677 5681 5686 5689 5693 5696 5699 5702 5705 5709 5712 5715 5719 5722 5726 5730 5733 5735 5737 5740 5743 5745 5748 5750 5752 5755 5758 5760 5764 5769 5773 5777 5780 5784 5787 5791 5795 5798 5802 5805 5808 5812 5816 5820 5824 5828 5831 5833 5836 5839 5841 5843 5845 5848 5851 5854 5857 5859 5860 5862 5864 5866 5868 5869 5871 5873 5873 5874 5876 5876 5877 5879 5880 5881 5882 5883 5884 5885 5886 5887 5888 5888 5888
5651 5656 5661 5665 5669 5674 5678 5683 5686 5690 5693 5697 5700 5703 5706 5709 5712 5716 5719 5723 5727 5730 5732 5735 5738 5741 5743 5745 5748 5750 5754 5757 5759 5762 5766 5771 5775 5778 5782 5786 5789 5792 5796 5799 5802 5805 5809 5813 5817 5821 5825 5829 5831 5833 5835 5837 5840 5844 5847 5850 5853 5855 5857 5859 5861 5863 5864 5865 5867 5869 5871 5872 5873 5874 5875 5875 5876 5878 5879 5880 5881 5882 5884 5885 5885 5886 5886 5887
5648 5653 5657 5662 5666 5670 5675 5679 5683 5686 5690 5694 5697 5700 5702 5705 5709 5713 5717 5721 5724 5727 5729 5732 5735 5738 5740 5743 5745 5749 5753 5756 5758 5760 5764 5768 5773 5777 5780 5784 5787 5790 5793 5796 5799 5803 5806 5810 5814 5818 5822 5825 5828 5830 5833 5837 5842 5845 5848 5850 5853 5855 5856 5857 5858 5860 5861 5863 5864 5866 5869 5870 5870 5872 5873 5873 5874 5876 5878 5879 5880 5881 5882 5883 5883 5884 5884 5885
5644 5649 5654 5658 5663 5667 5671 5675 5679 5683 5687 5691 5694 5697 5700 5703 5706 5710 5714 5718 5722 5724 5726 5729 5732 5735 5738 5741 5743 5747 5751 5754 5757 5759 5762 5766 5770 5774 5778 5781 5785 5788 5791 5794 5797 5800 5804 5807 5810 5814 5817 5822 5826 5830 5834 5838 5841 5843 5845 5847 5849 5851 5852 5853 5855 5856 5858 5859 5862 5864 5867 5868 5868 5869 5871 5871 5872 5874 5876 5877 5878 5879 5880 5881 5881 5882 5882 5883
5641 5646 5650 5655 5659 5663 5668 5672 5675 5680 5684 5688 5691 5695 5698 5701 5704 5708 5711 5715 5719 5722 5726 5729 5732 5735 5738 5740 5742 5746 5749 5752 5755 5758 5760 5764 5767 5771 5775 5778 5782 5785 5788 5792 5795 5799 5802 5805 5809 5814 5818 5822 5826 5830 5833 5835 5836 5838 5840 5842 5844 5846 5848 5850 5851 5853 5855 5857 5860 5862 5864 5865 5866 5867 5868 5869 5870 5872 5873 5874 5875 5876 5877 5878 5879 5879 5880 5881
5637 5642 5647 5651 5655 5660 5664 5668 5672 5677 5681 5685 5689 5693 5697 5701 5704 5707 5710 5712 5715 5719 5722 5726 5729 5733 5736 5739 5742 5744 5747 5751 5754 5756 5759 5761 5765 5768 5772 5776 5780 5783 5787 5789 5793 5796 5799 5803 5809 5814 5817 5820 5823 5826 5828 5830 5832 5835 5837 5839 5841 5843 5845 5847 5849 5851 5853 5855 5857 5859 5861 5863 5864 5864 5865 5867 5869 5871 5871 5872 5873 5874 5875 5876 5877 5877 5878 5878
5633 5638 5643 5647 5652 5656 5660 5664 5669 5673 5678 5682 5687 5691 5695 5698 5701 5704 5708 5710 5713 5717 5719 5723 5726 5730 5733 5737 5740 5742 5745 5749 5752 5755 5757 5760 5763 5766 5770 5774 5778 5781 5785 5788 5791 5794 5797 5802 5807 5810 5813 5816 5818 5821 5823 5826 5828 5831 5833 5836 5838 5840 5842 5844 5846 5849 5851 5852 5854 5856 5858 5860 5861 5861 5862 5864 5867 5869 5869 5869 5871 5871 5872 5874 5874 5875 5875 5876
5629 5634 5639 5643 5648 5652 5656 5661 5666 5671 5676 5680 5684 5688 5691 5693 5696 5699 5702 5706 5710 5714 5718 5722 5725 5727 5731 5734 5737 5739 5743 5746 5750 5753 5756 5759 5761 5764 5768 5772 5775 5779 5782 5786 5790 5793 5797 5801 5803 5806 5809 5812 5814 5817 5820 5822 5825 5828 5830 5833 5835 5837 5840 5842 5844 5846 5847 5849 5851 5853 5854 5857 5859 5859 5860 5862 5864 5866 5866 5867 5869 5869 5870 5871 5871 5872 5873 5874
5626 5631 5635 5640 5644 5648 5653 5658 5663 5668 5673 5677 5680 5683 5687 5689 5692 5694 5697 5701 5705 5709 5714 5718 5723 5726 5729 5731 5734 5737 5740 5744 5747 5750 5754 5757 5759 5763 5766 5769 5773 5777 5780 5784 5787 5791 5795 5798 5800 5803 5806 5809 5811 5814 5817 5820 5822 5825 5827 5830 5832 5834 5836 5838 5840 5841 5843 5845 5847 5849 5851 5853 5856 5857 5858 5859 5860 5863 5864 5865 5866 5867 5867 5868 5868 5869 5870 5871
5622 5627 5632 5636 5641 5645 5650 5656 5661 5666 5669 5673 5676 5680 5683 5685 5688 5690 5693 5697 5700 5704 5708 5713 5718 5722 5726 5729 5732 5735 5738 5741 5744 5747 5751 5754 5757 5761 5764 5767 5771 5774 5778 5781 5784 5787 5790 5793 5796 5800 5803 5806 5809 5812 5814 5817 5819 5822 5824 5827 5829 5831 5833 5835 5836 5838 5840 5842 5844 5846 5846 5849 5853 5854 5855 5856 5857 5859 5861 5862 5863 5864 5864 5865 5866 5866 5867 5868
5618 5623 5628 5633 5638 5643 5647 5653 5658 5662 5666 5669 5673 5676 5679 5681 5683 5686 5689 5692 5695 5699 5704 5709 5713 5717 5722 5726 5729 5732 5735 5738 5742 5745 5748 5751 5754 5758 5761 5764 5768 5772 5775 5778 5780 5783 5786 5789 5793 5795 5798 5801 5804 5807 5810 5813 5815 5818 5821 5824 5825 5827 5829 5831 5833 5834 5836 5838 5840 5842 5842 5844 5849 5851 5852 5853 5855 5856 5857 5859 5860 5861 5861 5862 5863 5863 5864 5865
5613 5619 5624 5630 5635 5640 5645 5651 5654 5659 5663 5665 5669 5672 5674 5676 5678 5682 5685 5686 5689 5695 5701 5706 5710 5714 5718 5722 5725 5729 5731 5735 5739 5742 5745 5749 5752 5755 5758 5762 5766 5769 5771 5774 5776 5780 5784 5787 5789 5792 5794 5797 5801 5804 5807 5809 5811 5815 5818 5820 5821 5823 5825 5826 5828 5830 5832 5834 5836 5838 5839 5839 5844 5848 5849 5850 5852 5852 5853 5855 5857 5857 5858 5859 5860 5861 5861 5862
5610 5615 5620 5626 5631 5636 5642 5646 5651 5656 5658 5660 5664 5666 5668 5671 5674 5677 5679 5679 5684 5692 5697 5702 5708 5712 5715 5718 5722 5725 5729 5733 5737 5739 5743 5746 5749 5752 5755 5759 5762 5765 5768 5771 5776 5780 5782 5785 5787 5790 5792 5795 5800 5803 5804 5806 5808 5811 5814 5815 5817 5819 5821 5822 5824 5826 5828 5830 5831 5834 5835 5835 5838 5845 5847 5846 5848 5849 5850 5852 5853 5853 5854 5856 5858 5858 5858 5858
5607 5612 5616 5621 5626 5632 5637 5641 5646 5650 5652 5655 5658 5660 5662 5665 5667 5670 5671 5675 5682 5688 5693 5699 5704 5708 5712 5716 5719 5723 5727 5731 5733 5737 5741 5743 5746 5749 5752 5756 5758 5761 5764 5768 5772 5776 5778 5781 5784 5787 5790 5793 5797 5799 5801 5803 5805 5808 5809 5811 5813 5815 5816 5818 5819 5821 5823 5824 5827 5829 5831 5831 5833 5840 5843 5843 5844 5845 5847 5848 5848 5850 5851 5853 5854 5854 5855 5856
5603 5608 5613 5618 5623 5628 5633 5637 5641 5644 5646 5650 5652 5654 5657 5659 5661 5663 5665 5673 5681 5686 5691 5696 5701 5705 5709 5713 5716 5719 5723 5727 5730 5734 5737 5739 5743 5746 5749 5752 5755 5757 5761 5765 5768 5771 5774 5777 5780 5783 5786 5789 5792 5793 5796 5798 5800 5803 5804 5806 5809 5810 5812 5813 5815 5817 5817 5820 5823 5825 5827 5828 5828 5834 5839 5840 5840 5842 5843 5844 5844 5846 5847 5849 5850 5851 5852 5852
5600 5605 5610 5615 5620 5624 5629 5633 5636 5640 5642 5645 5647 5648 5650 5653 5655 5657 5664 5675 5680 5682 5688 5693 5697 5703 5707 5711 5714 5716 5719 5722 5726 5729 5732 5736 5739 5742 5744 5747 5751 5754 5757 5761 5764 5767 5771 5773 5776 5779 5782 5785 5787 5789 5791 5793 5796 5798 5800 5803 5804 5805 5807 5808 5810 5812 5813 5816 5820 5821 5823 5825 5825 5829 5834 5836 5837 5838 5839 5840 5840 5841 5843 5844 5846 5847 5848 5848
5596 5601 5607 5612 5616 5620 5623 5626 5631 5635 5636 5639 5640 5641 5644 5646 5647 5653 5666 5675 5674 5678 5687 5692 5696 5701 5705 5708 5711 5713 5716 5719 5722 5725 5729 5733 5735 5738 5741 5744 5748 5750 5753 5757 5760 5764 5767 5770 5773 5776 5778 5781 5783 5785 5787 5789 5792 5794 5796 5798 5799 5800 5801 5803 5805 5807 5810 5813 5816 5817 5819 5821 5823 5827 5828 5830 5833 5834 5835 5836 5837 5838 5839 5840 5841 5842 5843 5844
5592 5597 5602 5607 5611 5614 5617 5621 5626 5628 5630 5633 5634 5636 5638 5638 5643 5656 5667 5669 5670 5678 5687 5689 5693 5698 5700 5703 5705 5708 5712 5716 5720 5722 5725 5729 5731 5735 5738 5741 5745 5749 5753 5757 5759 5762 5764 5767 5770 5773 5775 5778 5780 5782 5784 5787 5790 5791 5793 5794 5795 5797 5798 5800 5803 5805 5807 5810 5812 5813 5815 5817 5821 5823 5822 5824 5828 5830 5831 5833 5833 5834 5835 5836 5837 5838 5839 5840
5587 5591 5597 5602 5606 5609 5612 5616 5621 5623 5625 5626 5627 5630 5631 5634 5646 5658 5662 5664 5669 5676 5682 5685 5689 5693 5695 5699 5702 5705 5708 5711 5715 5718 5721 5724 5727 5730 5734 5738 5742 5746 5750 5753 5756 5759 5762 5765 5768 5771 5773 5775 5778 5780 5782 5784 5786 5787 5789 5791 5792 5795 5796 5798 5800 5801 5804 5806 5806 5808 5809 5812 5817 5819 5818 5820 5823 5826 5827 5828 5828 5829 5830 5831 5832 5833 5834 5836
5582 5587 5592 5596 5600 5604 5608 5612 5616 5618 5619 5620 5622 5623 5625 5635 5650 5656 5657 5663 5669 5674 5678 5681 5685 5688 5690 5694 5698 5701 5704 5707 5711 5714 5717 5720 5724 5728 5732 5735 5738 5741 5744 5747 5750 5754 5757 5761 5765 5768 5770 5772 5774 5776 5777 5779 5780 5782 5784 5786 5788 5791 5792 5794 5795 5797 5799 5800 5801 5803 5805 5810 5814 5815 5815 5816 5818 5821 5822 5822 5823 5824 5825 5826 5828 5829 5830 5831
5578 5582 5587 5590 5595 5600 5603 5607 5611 5612 5614 5615 5616 5617 5625 5641 5652 5654 5658 5663 5667 5671 5673 5675 5678 5681 5684 5688 5692 5696 5699 5704 5708 5711 5713 5717 5721 5725 5729 5733 5736 5739 5742 5745 5748 5751 5754 5757 5760 5763 5765 5767 5769 5771 5772 5774 5776 5778 5780 5782 5786 5787 5788 5790 5791 5793 5795 5795 5797 5800 5803 5807 5810 5810 5811 5813 5814 5816 5817 5818 5819 5820 5821 5822 5823 5825 5826 5827
5574 5578 5582 5586 5590 5594 5598 5602 5606 5607 5609 5610 5610 5617 5631 5644 5649 5650 5654 5658 5662 5665 5665 5668 5673 5676 5680 5685 5688 5692 5696 5699 5702 5706 5710 5713 5716 5720 5725 5729 5733 5737 5740 5744 5746 5749 5752 5754 5757 5759 5760 5762 5764 5766 5767 5769 5772 5774 5776 5780 5782 5782 5783 5785 5786 5788 5790 5791 5793 5796 5800 5803 5805 5806 5809 5810 5810 5811 5812 5813 5814 5815 5817 5818 5818 5819 5821 5822
5570 5575 5578 5581 5585 5589 5593 5596 5599 5601 5603 5605 5609 5620 5632 5638 5641 5643 5648 5652 5657 5658 5659 5664 5669 5673 5677 5682 5685 5689 5692 5694 5697 5701 5705 5708 5711 5717 5722 5725 5729 5733 5736 5739 5741 5744 5747 5749 5751 5754 5756 5757 5759 5761 5762 5765 5768 5770 5772 5775 5776 5776 5779 5782 5782 5784 5786 5787 5789 5793 5795 5798 5801 5803 5806 5806 5806 5806 5807 5809 5810 5811 5812 5813 5814 5815 5816 5817
5565 5569 5572 5575 5579 5583 5586 5589 5592 5594 5595 5599 5609 5620 5627 5631 5634 5639 5644 5648 5651 5653 5655 5659 5664 5668 5673 5678 5682 5685 5687 5690 5695 5698 5701 5704 5708 5714 5719 5722 5726 5728 5731 5734 5737 5739 5742 5744 5745 5748 5750 5751 5753 5755 5758 5761 5764 5765 5768 5770 5771 5773 5775 5777 5778 5780 5782 5783 5785 5788 5790 5793 5798 5800 5801 5802 5802 5802 5802 5804 5805 5806 5808 5809 5810 5811 5811 5811
5560 5564 5566 5570 5574 5577 5580 5583 5584 5585 5588 5598 5610 5619 5623 5625 5628 5634 5639 5641 5643 5646 5649 5653 5659 5663 5668 5673 5676 5680 5684 5687 5691 5695 5698 5702 5706 5710 5715 5718 5722 5725 5728 5729 5732 5734 5736 5738 5740 5742 5744 5745 5748 5751 5755 5758 5759 5761 5763 5765 5767 5770 5771 5773 5774 5776 5778 5779 5780 5781 5783 5789 5794 5796 5797 5798 5798 5798 5798 5798 5800 5802 5804 5805 5806 5806 5806 5806
5555 5557 5560 5565 5568 5571 5573 5574 5576 5580 5588 5600 5608 5613 5615 5617 5622 5628 5632 5634 5637 5641 5645 5649 5654 5658 5663 5668 5671 5675 5679 5682 5686 5690 5694 5698 5703 5707 5712 5716 5719 5721 5722 5724 5727 5729 5731 5734 5735 5736 5739 5742 5746 5749 5751 5752 5754 5756 5759 5761 5764 5766 5767 5768 5769 5771 5773 5773 5774 5775 5777 5784 5791 5791 5792 5794 5793 5794 5794 5794 5796 5798 5799 5800 5800 5800 5801 5801
5549 5552 5557 5560 5563 5565 5567 5569 5574 5579 5588 5596 5601 5604 5607 5611 5617 5623 5626 5629 5631 5635 5639 5643 5648 5653 5657 5661 5666 5670 5673 5677 5681 5685 5689 5695 5700 5703 5708 5711 5714 5716 5718 5720 5723 5726 5727 5729 5730 5732 5735 5738 5740 5742 5744 5747 5749 5751 5753 5757 5759 5760 5762 5763 5764 5767 5769 5768 5770 5771 5772 5781 5788 5787 5788 5789 5789 5790 5791 5791 5793 5794 5794 5795 5794 5794 5794 5795
5545 5549 5553 5555 5558 5561 5562 5564 5569 5574 5583 5592 5596 5598 5601 5607 5612 5615 5619 5623 5626 5630 5635 5638 5642 5647 5651 5656 5660 5664 5668 5672 5675 5680 5686 5691 5695 5698 5700 5703 5707 5709 5710 5713 5716 5719 5721 5722 5724 5727 5729 5731 5733 5736 5739 5741 5743 5746 5750 5754 5754 5755 5758 5759 5759 5762 5763 5764 5767 5768 5769 5777 5784 5784 5784 5784 5784 5786 5787 5788 5788 5789 5790 5790 5789 5789 5788 5789
5541 5544 5547 5550 5553 5555 5556 5559 5565 5573 5582 5588 5589 5591 5596 5601 5605 5608 5613 5618 5622 5626 5631 5634 5638 5642 5647 5651 5655 5659 5663 5665 5669 5675 5680 5684 5688 5692 5693 5696 5700 5701 5704 5707 5711 5714 5715 5715 5717 5719 5720 5723 5725 5728 5731 5735 5739 5742 5746 5748 5749 5750 5752 5753 5755 5756 5757 5761 5764 5764 5767 5775 5780 5780 5779 5777 5779 5782 5782 5783 5784 5783 5784 5784 5783 5783 5782 5782
5536 5539 5542 5544 5546 5548 5552 5558 5565 5573 5578 5580 5582 5586 5591 5595 5599 5603 5609 5613 5617 5621 5625 5630 5634 5638 5642 5646 5649 5652 5656 5659 5664 5669 5673 5678 5682 5685 5687 5689 5693 5696 5699 5702 5704 5706 5706 5706 5708 5711 5712 5715 5718 5722 5728 5734 5737 5739 5741 5744 5745 5747 5748 5749 5750 5750 5752 5758 5760 5759 5766 5773 5774 5774 5773 5772 5773 5776 5777 5778 5778 5778 5778 5778 5777 5776 5776 5776
5530 5533 5535 5537 5540 5544 5549 5555 5560 5565 5569 5574 5578 5582 5585 5589 5594 5599 5603 5607 5611 5615 5619 5624 5628 5631 5635 5638 5642 5646 5651 5656 5659 5663 5668 5673 5676 5678 5681 5683 5686 5689 5691 5694 5696 5697 5696 5697 5701 5703 5706 5711 5717 5722 5727 5730 5731 5732 5736 5739 5741 5742 5743 5744 5743 5744 5750 5753 5752 5755 5763 5767 5767 5767 5767 5767 5769 5770 5771 5773 5773 5773 5772 5772 5770 5770 5770 5771
5524 5527 5530 5532 5535 5539 5544 5549 5553 5559 5564 5568 5572 5576 5580 5584 5589 5593 5596 5600 5605 5610 5613 5617 5621 5624 5628 5634 5638 5642 5647 5651 5654 5658 5663 5667 5669 5672 5674 5676 5678 5680 5683 5686 5688 5688 5688 5690 5695 5698 5702 5708 5714 5716 5718 5720 5722 5725 5729 5730 5732 5734 5735 5735 5735 5740 5746 5744 5743 5753 5759 5759 5762 5763 5762 5764 5765 5764 5766 5767 5767 5768 5766 5765 5765 5765 5765 5765
5520 5522 5525 5528 5531 5534 5540 5545 5550 5554 5558 5560 5565 5570 5574 5578 5583 5587 5591 5596 5601 5605 5608 5611 5615 5619 5625 5630 5634 5637 5641 5643 5647 5653 5657 5660 5663 5665 5667 5670 5672 5673 5676 5678 5679 5681 5681 5685 5691 5694 5697 5703 5707 5707 5709 5713 5715 5718 5720 5722 5724 5726 5726 5727 5730 5735 5738 5735 5740 5752 5754 5752 5757 5760 5759 5760 5760 5759 5761 5761 5761 5761 5760 5760 5761 5761 5760 5759
5516 5518 5520 5523 5527 5532 5538 5543 5545 5548 5550 5554 5558 5562 5567 5572 5577 5582 5587 5592 5596 5600 5603 5606 5611 5617 5621 5624 5627 5631 5633 5637 5643 5649 5653 5655 5657 5659 5661 5663 5665 5668 5670 5671 5673 5675 5675 5680 5686 5688 5690 5696 5698 5698 5702 5706 5707 5710 5713 5715 5718 5718 5719 5723 5726 5730 5731 5731 5739 5748 5747 5746 5752 5756 5758 5758 5755 5754 5755 5755 5754 5754 5755 5756 5756 5756 5755 5753
5512 5514 5516 5519 5523 5528 5533 5536 5539 5542 5545 5548 5552 5557 5562 5567 5572 5576 5581 5585 5589 5594 5598 5604 5609 5613 5615 5618 5621 5624 5629 5634 5640 5644 5647 5648 5649 5652 5655 5657 5660 5663 5663 5664 5666 5668 5671 5675 5680 5682 5684 5688 5690 5693 5696 5698 5699 5702 5704 5706 5709 5711 5714 5717 5721 5726 5727 5728 5737 5741 5738 5741 5749 5753 5755 5755 5752 5750 5749 5748 5748 5748 5748 5749 5749 5748 5747 5746
5507 5510 5512 5515 5518 5523 5526 5530 5534 5536 5539 5543 5548 5554 5558 5562 5567 5571 5575 5579 5584 5588 5594 5599 5603 5605 5608 5610 5614 5621 5627 5631 5633 5635 5638 5639 5642 5646 5648 5650 5654 5656 5657 5659 5661 5663 5667 5670 5674 5676 5676 5679 5686 5688 5688 5691 5692 5690 5692 5698 5703 5707 5711 5715 5719 5723 5723 5725 5731 5732 5730 5738 5747 5749 5749 5748 5746 5744 5744 5743 5742 5742 5741 5741 5740 5739 5738 5737
5502 5505 5508 5511 5513 5516 5520 5525 5528 5530 5534 5540 5546 5549 5552 5557 5561 5564 5567 5573 5578 5583 5587 5592 5595 5597 5600 5604 5610 5618 5622 5623 5625 5627 5629 5631 5634 5637 5639 5642 5646 5648 5651 5654 5655 5658 5662 5664 5668 5670 5669 5675 5681 5681 5681 5684 5679 5676 5685 5697 5702 5706 5709 5711 5713 5716 5718 5719 5721 5721 5727 5737 5739 5738 5740 5740 5739 5739 5739 5738 5736 5735 5734 5733 5731 5730 5729 5729